Regional Weather Roundup
Issued by NWS New Orleans/Baton Rouge, LA

Home | Current Version | Previous Version | Text Only | Print | Product List | Glossary Off
Versions: 1 2 3 4 5 6 7 8 9 10 11 12 13 14 15 16 17 18 19 20 21 22 23 24 25 26 27 28 29 30 31 32 33 34 35 36 37 38 39 40 41 42 43 44 45 46 47 48 49 50

166
ASUS44 KLIX 281201
RWRLIX
NEW ORLEANS REGIONAL WEATHER ROUNDUP
NATIONAL WEATHER SERVICE NEW ORLEANS LA
600 AM CST FRI NOV 28 2014

NOTE: "FAIR" INDICATES FEW OR NO CLOUDS BELOW 12,000 FEET WITH NO
      SIGNIFICANT WEATHER AND/OR OBSTRUCTIONS TO VISIBILITY.
      SKY/WX - SKY CONDITION AND SIGNIFICANT WEATHER.
      TMP - AIR TEMPERATURE.     DP    - DEWPOINT TEMPERATURE.
      RH  - RELATIVE HUMIDITY.   PRES  - PRESSURE.
      HI  - HEAT INDEX.          WCI   - WIND CHILL INDEX.

*  THESE STATIONS ARE NOT NWS OR FAA STATIONS AND ARE NOT UNDER
   NWS QUALITY CONTROL.

LAZ038-040-048-061>063-065>067-069-281300-
SOUTHEAST LOUISIANA

CITY           SKY/WX    TMP DP  RH WIND       PRES   REMARKS
N.O. AUDUBON     N/A     44  36  73 MISG        N/A
6HR MIN TEMP:  42; 6HR MAX TEMP:  47;

N.O. INTL ARPT CLEAR     43  33  68 E7        30.43R
6HR MIN TEMP:  43; 6HR MAX TEMP:  49;

N.O. LAKEFRONT CLEAR     45  35  68 E14       30.43S
6HR MIN TEMP:  45; 6HR MAX TEMP:  51;

N.O. DOWNTOWN*   N/A     43  30  61 NE5       30.43S
6HR MIN TEMP:  43; 6HR MAX TEMP:  48;

SLIDELL        CLEAR     31  28  89 N3        30.43S
6HR MIN TEMP:  30; 6HR MAX TEMP:  36;

BATON ROUGE    CLEAR     34  31  88 E5        30.43R WCI  30
6HR MIN TEMP:  33; 6HR MAX TEMP:  39;

BOOTHVILLE     CLEAR     51  42  71 NE8       30.41R
6HR MIN TEMP:  50; 6HR MAX TEMP:  53;

BELLE CHASSE   CLEAR     38  33  82 CALM      30.42S
6HR MIN TEMP:  37; 6HR MAX TEMP:  46;

BOGALUSA*        N/A     32  30  91 CALM      30.46R
6HR MIN TEMP:  32; 6HR MAX TEMP:  37;

NEW ROADS*     NOT AVBL
GONZALES*      NOT AVBL
HAMMOND*       NOT AVBL
HOUMA*         CLEAR     39  36  87 NE7       30.41S WCI  34
PORT FOURCHON* SUNNY     50  45  81 NE10G16   30.43R

$$

MSZ070-080>082-281300-
SOUTHERN MISSISSIPPI

CITY           SKY/WX    TMP DP  RH WIND       PRES   REMARKS
MCCOMB         CLEAR     32  27  81 CALM      30.42S
6HR MIN TEMP:  32; 6HR MAX TEMP:  39;

GULFPORT       CLEAR     33  31  92 CALM      30.44R
6HR MIN TEMP:  33; 6HR MAX TEMP:  41;

BILOXI         CLEAR     35  31  84 NE6       30.43R WCI  30
6HR MIN TEMP:  35; 6HR MAX TEMP:  42;

PASCAGOULA     CLEAR     29  27  92 CALM      30.43R
6HR MIN TEMP:  28; 6HR MAX TEMP:  38;


$$

COASTAL OBSERVATIONS
LAKE AND NEARSHORE STATIONS

STATION/POSITION TIME  TEMP    WIND        PRES    WAVE
                       AIR SEA DIR/SP/G            HT/PER
                 (UTC) (F)     (DEG/KT/KT) (MB)    (FT/S)
PASCAGOULA       1100   39      40/  7/  9 1029.7
WAVELAND YACHT   1100   40      50/  5/  7 1029.6
GRAND ISLE       1100   50 59   60/ 10/ 13 1029.8
SOUTHWEST PASS   1100   54                 1029.1
NEW CANAL        1100   44 53   80/  7/ 12 1030.4
SHELL BEACH      1100   46 50   60/ 13/ 16 1029.8

OFFSHORE STATIONS

STATION/POSITION TIME  TEMP    WIND        PRES    WAVE
                       AIR SEA DIR/SP/G            HT/PER
                 (UTC) (F)     (DEG/KT/KT) (MB)    (FT/S)
64 S DAUPHIN ISL 1130   55 71   60/ 14/ 17 1029.5    4/ 6

$$




USA.gov is the U.S. government's official web portal to all federal, state and local government web resources and services.